Theta_e
348 353 357 358 360 360 360 360 360 360 360 360 359 358 359 359 359 358 358 359 360 358 357 357 357 357 358 359 359 359 358 356 354 352 351 351 349 352 354 354 353 351 353
351 355 359 359 359 360 360 360 360 360 360 359 359 359 358 357 357 357 357 358 358 357 357 357 357 357 357 357 357 357 358 358 358 358 357 355 351 351 352 355 356 352 353
353 355 357 359 357 358 359 359 359 359 359 359 358 357 357 357 356 356 357 357 356 356 356 356 356 356 356 356 356 356 356 356 357 357 357 355 351 352 353 353 356 359 356
354 353 355 359 358 356 356 358 358 358 358 358 358 357 356 356 355 355 356 356 355 355 355 354 354 354 355 355 355 356 356 356 356 355 352 352 351 352 353 354 358 359 359
352 354 354 360 359 357 357 358 359 360 360 359 359 358 357 357 358 358 358 357 355 354 353 353 353 354 354 354 354 355 355 355 355 354 353 352 351 351 353 352 355 358 358
352 354 360 361 361 360 358 358 360 360 360 359 358 357 355 356 357 352 352 353 352 351 347 346 350 352 351 351 354 355 354 354 355 350 352 352 353 353 355 355 354 356 360
352 354 357 362 361 361 359 356 354 353 353 354 354 353 351 350 350 351 350 349 348 344 343 341 345 346 345 345 345 349 351 351 347 349 349 351 351 352 354 355 355 358 358
352 354 355 360 361 358 354 352 352 352 351 350 350 350 348 347 347 348 346 345 342 341 339 339 339 341 341 341 341 344 343 341 335 342 347 349 351 353 354 355 357 357 358
353 352 351 353 352 353 352 351 350 350 350 348 347 346 345 344 344 341 343 344 339 338 337 337 336 336 334 334 335 337 336 334 327 335 337 344 350 351 349 354 355 357 357
348 346 341 337 339 340 342 351 350 349 348 347 344 339 337 335 336 339 337 341 338 336 335 335 333 332 332 331 332 333 332 329 324 329 328 329 339 337 342 348 351 354 357
339 333 327 325 330 335 339 343 344 343 340 337 334 333 327 326 327 327 336 335 335 336 334 333 333 331 330 328 329 329 327 323 322 324 323 328 331 334 338 344 350 347 349
328 324 321 322 325 326 328 327 326 328 325 324 323 322 321 321 327 326 327 331 331 332 330 330 329 328 325 321 321 323 321 320 322 321 321 326 328 331 335 337 341 345 347
324 322 320 320 322 320 321 321 322 324 324 323 323 321 319 319 319 322 319 319 320 325 321 321 319 319 320 320 320 318 318 318 319 320 320 326 328 332 333 334 335 342 344
321 321 320 320 318 318 317 317 319 319 319 319 321 319 317 317 318 320 318 320 320 320 319 318 317 319 318 319 317 316 316 317 318 319 319 324 326 330 331 332 334 335 336
320 320 319 320 318 316 315 316 317 318 319 319 318 318 318 317 317 318 317 319 319 319 317 316 316 317 316 317 317 316 316 317 317 318 318 323 325 326 327 331 331 331 333
321 321 320 319 319 318 316 316 316 318 318 317 317 317 317 316 316 316 316 316 317 317 316 315 315 315 314 314 315 316 316 316 316 316 316 318 322 323 326 328 328 331 334
322 321 319 319 320 317 316 316 316 316 316 314 315 318 317 317 316 316 314 314 315 315 314 315 314 314 313 314 313 314 314 315 315 315 316 316 317 321 324 325 329 330 331
321 320 321 323 317 317 315 315 315 316 315 313 313 316 317 317 318 315 314 313 314 313 313 312 312 311 311 311 311 312 313 314 314 314 315 316 317 317 319 324 326 328 332
319 320 320 319 317 318 316 314 315 315 314 313 311 313 316 316 318 315 313 312 313 311 310 310 310 309 308 309 310 312 313 312 313 313 314 315 315 316 318 320 324 327 328
320 321 319 319 320 318 315 314 313 313 314 314 312 314 315 315 317 315 312 312 312 309 308 308 308 309 309 309 309 310 310 312 313 313 313 313 314 315 317 318 322 321 328
320 320 321 320 320 319 315 314 312 310 312 313 313 315 314 315 316 313 311 310 310 308 307 308 308 307 307 309 307 307 309 311 311 311 312 314 314 315 316 319 319 323 325
320 321 323 322 320 317 318 316 312 311 312 312 313 313 313 314 314 312 309 309 309 307 307 307 307 306 306 309 306 305 303 306 310 312 313 313 314 315 315 317 321 324 326
322 323 321 320 318 319 318 314 312 312 311 309 309 310 311 311 312 311 310 309 308 307 305 305 308 306 304 307 307 304 302 300 304 310 311 313 313 313 315 316 322 324 326
323 323 322 321 319 319 315 311 310 307 306 306 308 308 307 309 310 310 310 309 307 306 305 306 309 306 305 303 304 307 309 307 302 301 308 310 311 311 313 316 318 322 323
323 321 320 321 317 315 314 312 310 308 307 307 306 305 306 310 310 310 309 308 307 305 305 305 306 304 304 302 302 303 307 308 308 303 301 304 308 312 314 315 320 321 321
318 319 318 313 309 309 309 308 307 305 304 304 305 306 306 308 308 307 307 306 306 305 305 306 305 303 303 302 304 306 306 304 303 303 302 303 303 309 312 316 319 318 319
Wind_Speed
3 5 6 7 9 13 14 14 15 15 15 15 16 15 13 13 13 12 11 10 9 9 9 9 8 8 9 8 8 8 7 7 7 6 6 4 2 2 3 5 6 5 6
6 6 8 8 10 13 14 14 14 14 14 15 15 14 13 13 12 11 10 10 9 9 9 8 8 8 8 8 8 8 8 7 8 8 7 5 4 5 6 7 9 7 9
6 5 6 11 12 13 13 13 13 12 13 13 13 13 13 12 12 10 9 9 9 9 9 9 9 9 9 10 10 10 9 9 9 9 10 5 6 8 8 9 11 9 12
6 4 5 11 13 13 13 11 11 11 11 12 11 11 11 11 11 11 10 10 11 12 12 12 12 12 12 12 12 12 12 12 11 11 5 5 6 10 11 10 12 13 14
5 3 6 11 13 13 13 11 10 10 10 10 11 11 11 11 12 10 11 12 13 13 14 15 15 14 13 13 13 13 13 13 13 11 7 6 6 8 11 12 12 12 15
5 4 8 10 11 12 12 11 9 10 10 10 11 12 13 12 13 15 16 17 16 17 19 18 18 17 16 16 14 14 14 13 13 6 6 8 9 10 13 13 14 14 15
7 6 7 10 11 12 12 11 11 11 12 13 14 16 17 16 15 15 17 16 17 18 18 18 17 16 16 17 17 16 16 15 10 7 7 7 9 11 14 15 15 14 14
6 4 6 11 11 12 14 13 14 15 15 15 16 16 16 15 15 16 16 16 17 17 17 17 17 16 16 16 17 16 17 18 13 10 10 8 10 12 15 14 15 15 16
5 4 5 6 10 13 14 14 14 14 14 14 15 14 15 15 15 16 15 14 15 15 16 16 16 17 17 17 16 16 17 18 10 7 10 7 13 15 15 14 15 16 16
5 5 5 6 6 6 6 13 14 13 13 13 15 15 14 13 14 14 10 12 14 16 17 16 16 16 16 16 15 16 16 15 9 8 7 7 16 19 17 15 15 15 15
5 5 5 6 6 6 6 8 11 14 13 13 12 12 8 4 5 9 12 14 14 14 16 16 16 16 15 13 14 16 15 4 6 6 5 15 19 19 19 17 15 16 16
6 6 6 7 7 7 6 6 6 6 5 5 5 6 4 5 5 7 10 14 15 16 16 15 15 14 11 5 5 10 3 5 5 6 6 18 20 20 19 18 18 17 14
8 5 7 6 5 7 6 4 3 3 3 4 6 4 4 4 4 3 3 4 3 10 4 6 6 4 6 5 5 6 6 6 5 5 9 19 20 19 19 21 20 17 16
10 9 7 5 6 6 4 3 4 4 3 3 4 5 4 3 4 4 3 3 3 2 5 4 4 5 6 7 6 7 7 6 5 5 7 19 21 20 22 22 20 20 21
7 6 6 7 6 6 6 4 4 4 5 4 4 6 5 4 4 3 4 3 3 3 4 6 6 5 6 7 8 8 9 9 9 6 6 19 21 23 23 21 21 23 22
7 4 4 6 7 7 5 5 4 4 5 4 4 4 5 4 4 3 4 4 4 4 5 5 6 6 6 7 8 8 10 10 11 11 8 9 20 21 22 22 24 23 22
6 6 7 6 6 8 6 5 4 3 4 4 4 4 5 5 4 4 3 4 3 4 6 6 7 6 7 7 9 9 10 11 11 12 10 8 11 18 21 22 22 22 23
6 4 2 6 7 7 6 4 3 3 4 3 3 3 4 3 2 2 2 3 4 4 4 5 6 6 7 8 8 8 8 10 13 13 10 8 8 9 13 19 21 22 22
7 7 7 5 7 7 5 3 2 3 3 3 3 3 3 2 2 2 2 3 4 4 5 5 6 6 7 8 8 8 9 10 12 11 12 11 11 10 8 14 20 21 23
7 6 7 6 4 5 4 3 2 2 3 1 2 3 4 3 3 2 2 4 4 4 5 6 7 7 7 8 9 9 8 9 9 8 10 10 10 11 9 10 9 11 21
7 7 3 5 1 2 2 4 4 4 2 2 2 2 4 3 3 3 3 4 4 5 6 7 5 9 8 6 5 7 8 9 9 7 7 9 10 9 9 9 7 8 9
6 5 3 4 5 3 3 3 3 2 2 2 2 3 4 5 5 5 5 4 5 5 7 7 7 4 8 7 5 8 5 6 3 9 8 7 9 7 10 10 11 10 8
8 8 6 3 4 4 7 3 2 2 2 3 3 2 3 5 5 5 5 4 5 4 5 6 6 8 7 8 9 4 4 3 9 4 10 6 7 7 8 10 11 10 10
7 8 5 4 7 6 3 4 4 3 3 2 2 2 4 4 6 6 6 5 5 4 5 6 6 6 6 8 8 5 7 5 4 6 7 6 6 10 11 8 10 8 9
4 4 3 5 2 5 3 4 2 2 2 2 2 5 4 4 5 7 7 6 5 5 5 6 7 7 6 5 6 6 7 5 4 4 9 10 10 8 7 9 7 5 7
5 3 4 3 4 6 6 5 4 5 5 5 6 6 5 5 5 8 7 6 5 6 6 5 6 6 6 6 6 6 5 3 5 5 6 11 11 8 10 6 5 4 4
Wind_Direction
150 123 118 120 106 97 90 88 88 87 89 90 92 90 88 88 88 88 84 75 64 62 57 49 40 31 21 17 15 12 11 6 4 2 4 358 335 248 220 213 201 203 216
116 120 115 105 94 88 89 88 85 83 82 82 83 83 80 77 74 69 66 65 60 51 44 36 26 17 8 356 349 345 343 342 338 333 328 330 318 284 248 236 223 218 215
97 114 119 113 101 94 91 89 88 84 84 82 80 79 78 73 69 65 59 52 46 37 29 22 15 7 359 350 344 338 332 326 322 317 314 325 307 287 268 246 242 238 211
112 106 107 113 108 102 97 91 85 84 83 83 80 80 76 73 66 56 48 41 36 32 26 18 14 6 1 353 345 336 328 325 321 316 317 307 302 302 295 280 251 236 218
108 116 128 116 111 108 105 99 95 93 88 83 83 80 77 71 64 53 46 38 34 31 27 20 13 8 4 359 350 341 334 328 322 320 311 300 289 286 287 289 285 257 243
125 129 125 118 112 109 105 99 91 88 86 85 82 75 67 70 67 60 54 53 49 50 50 43 37 34 27 17 7 359 351 341 328 314 296 289 289 282 287 283 279 276 271
149 141 125 123 116 114 107 94 88 88 82 80 84 81 73 70 67 58 55 52 56 46 41 37 34 30 24 18 16 12 5 356 345 329 306 289 284 273 290 291 281 271 273
138 138 129 127 120 115 104 92 88 90 88 80 82 78 74 70 66 63 56 59 55 48 41 37 33 29 25 17 13 9 11 8 5 345 331 314 296 295 308 304 293 279 268
114 116 104 107 120 111 100 93 91 89 87 85 80 75 71 66 61 57 53 56 49 44 37 32 29 24 18 11 9 7 8 2 357 343 341 333 322 321 320 311 302 292 277
100 101 96 91 100 100 94 101 102 97 91 88 84 76 72 65 62 58 58 44 38 32 27 20 17 18 14 8 7 6 3 357 345 335 335 320 327 322 320 316 319 319 279
112 114 113 115 121 119 108 106 95 97 89 83 74 72 65 59 49 42 37 33 27 21 14 11 4 6 8 3 0 353 351 333 330 320 316 315 322 318 316 314 308 318 321
155 162 155 147 151 137 124 118 114 103 101 85 77 60 49 43 39 41 27 21 16 13 6 5 2 358 359 340 332 341 318 310 302 299 307 314 312 310 307 313 310 308 317
169 170 183 168 155 132 132 129 99 90 77 71 74 77 58 57 41 40 30 19 11 9 6 355 347 338 333 326 324 315 306 305 300 297 305 313 313 304 305 306 305 299 307
180 173 173 153 124 92 82 96 120 114 118 117 107 86 73 54 41 35 32 13 13 1 345 335 326 313 318 315 304 302 300 301 303 295 287 306 306 302 304 299 298 302 298
179 162 141 129 114 106 104 122 118 117 111 112 85 62 61 58 48 31 18 9 1 346 337 327 319 313 315 313 308 301 302 296 291 280 283 291 298 299 296 295 301 295 295
42 27 85 108 120 117 107 103 103 99 99 82 74 89 76 76 60 37 12 358 344 345 333 327 319 311 307 304 305 305 302 297 291 288 286 284 291 295 293 293 294 294 295
147 131 119 116 95 86 100 98 87 112 110 87 91 89 67 61 56 32 360 340 328 330 329 326 316 313 310 309 306 308 305 298 292 288 286 285 287 289 292 290 293 297 294
70 76 93 90 102 99 86 79 82 80 85 98 98 101 75 62 79 16 349 325 323 325 321 316 312 316 310 306 306 301 294 291 291 292 291 288 288 289 289 293 297 298 297
122 121 88 83 96 97 100 111 138 137 124 144 141 132 99 60 24 9 326 310 319 319 318 311 306 296 295 294 296 296 295 293 294 296 293 289 285 284 286 288 299 302 300
78 74 86 71 92 141 124 77 351 192 202 136 71 61 37 10 357 348 311 309 323 321 314 318 311 306 296 297 304 302 285 279 278 289 291 289 289 290 289 289 294 297 301
68 82 63 126 63 330 19 69 278 274 353 354 329 13 20 348 344 346 322 320 331 324 309 311 308 323 317 308 296 315 291 280 280 289 287 293 297 302 300 302 295 299 297
90 124 46 18 14 340 313 241 243 311 298 303 333 355 2 357 356 347 327 321 326 325 324 326 326 316 320 329 312 300 317 297 322 312 294 293 294 313 317 311 300 301 300
77 13 71 1 285 252 242 273 326 358 344 349 346 348 1 351 342 328 319 321 318 320 310 311 307 330 313 321 323 301 304 335 318 307 305 317 326 330 316 313 303 324 323
103 179 155 229 262 256 333 337 360 313 310 276 290 320 323 347 330 327 325 317 304 311 309 315 317 323 311 312 317 302 290 283 315 317 313 328 347 321 318 310 310 319 332
119 223 202 236 345 303 340 349 344 325 267 291 309 336 337 341 337 333 331 321 324 318 299 293 308 319 306 294 298 295 299 297 282 313 308 326 322 323 302 313 306 332 331
340 340 333 109 37 23 41 34 44 30 344 358 346 350 344 340 335 328 326 327 314 308 308 305 309 301 296 293 279 293 315 322 328 312 304 318 318 321 310 303 335 354 331